OBJECT C, 44854

Orbit data source: Space-Track

You're viewing an Uncataloged Satellite

Recently launched and/or uncataloged satellites may have evolving metadata. Metadata may include but not limited to: Owner, Maufacturer, Bus, Motor, and Mission.

OBJECT C, 44854 is a satellite in LEO that was launched on Wed, 11 Dec 2019 UTC via a PSLV-QL launch vehicle from the Sirharikota (SRI). Unknown objects in Earth's orbit typically refer to objects detected orbiting the Earth but have not yet been identified or cataloged. These objects could be anything from previously untracked satellites, spent rocket stages, debris from satellite collisions, or even natural meteoroids temporarily captured by Earth's gravity.

Loading next visibility...
Identifier
44854, 2019-089C
Orbit
LEO
Last TLE update
4 hours ago
Origin
Manufacturer
Herzliya
Mission
Operational Amateur Imaging
Bus & Motor
CUBESAT 3U, Unknown motor
Mass
4 kg wet, 4 kg dry
Launch date (UTC)
2019-12-11 (6 years ago)
Launch vehicle
PSLV-QL
Launch site
Sirharikota (SRI)
Object type
Unknown
Shape & HBR
Box, Unknown HBR
Radar Cross Section
0.035 m², Small (<0.1 m²)

Expand to show TLE details & history

TLE from 4 hours ago
0 OBJECT C
1 44854U 19089C   25186.17368107  .00042937  00000-0  78459-3 0  9998
2 44854  36.9408 192.2273 0004921 188.3065 171.7612 15.48405730306911
Epoch: 2025-07-05T04:10Z
TLE epoch observation values (Epoch: 2025-07-05T04:10:06.044Z)
Latitude
0.00003°
Longitude
-153.71337°
Altitude
423.803 km
Speed
7.657 km/s
True Right ascension
12h 48m 54s
True Declination
0° 00' 00"
Sunlit
Object was in daylight at epoch
Visualization orbit readout
Latitude
-1.88303°
Longitude
27.74725°
Altitude
417.395 km
Speed
7.665 km/s
Apparent Right ascension
03h 37m 41s
Apparent Declination
-30° 41' 14"
Sunlit
Object is in daylight
Visualization observer readout
Local Sidereal Time
19:56:49
Azimuth
101.363° ESE
Elevation
-37.478°
Doppler factor
1
Orbital elements
Apogee altitude
427.71 km
Perigee altitude
421.015 km
Semi-major axis
6,802.499 km
Eccentricity
0.00049
Inclination
36.9408°
RAAN
192.2273°
Arg. of periapsis
188.3065°
True anomaly
Unknown
Mean anomaly
171.7612°
Eccentric anomaly
Unknown
Mean motion
3.86848 °/min
Orbital period
93.06 mins
BSTAR
0.00078459
Loading maneuver chart data...
Loading SW <> Apogee altitude chart data...
Loading historical data...
Loading historical data...
Loading historical data...
Loading historical data...
Loading historical data...
Loading historical data...
Loading historical data...

OBJECT C Visibility forecast

Observer location: undefined°, undefined°

Span
Click to sort rows by Start time (UTC) header in descending order
Start Az.
Max El. time (UTC)
Max El. Az.
Max El.
End time (UTC)
End Az.
4 mins2025-07-05 09:17:00.061Z245.274° WSW2025-07-05 09:19:00.061Z204.676° SW18.218°2025-07-05 09:21:00.061Z162.421° S
4 mins2025-07-06 05:14:00.061Z222.438° SW2025-07-06 05:16:00.061Z145.2° SSE30.939°2025-07-06 05:18:00.061Z103.358° ESE
4 mins2025-07-06 06:52:00.061Z240.66° WSW2025-07-06 06:53:00.061Z201.839° SSW35.899°2025-07-06 06:56:00.061Z112.303° ESE
|